Location: Orangeville
(43.9200°N, 80.0943°W)
Time: 18:16:51
(UTC-05:00)

Tiangong - Pass Details

Date: 12 December 2021
Orbit: 383 x 386 km, 41.5° (Epoch: 20 January)

Event Time Altitude Azimuth Distance (km) Brightness Sun altitude
Rises 19:12:05 0° 265° (W) 2,275 6.3 -25.9°
Reaches altitude 10° 19:14:11 10° 261° (W) 1,418 4.9 -26.3°
Enters shadow 19:15:29 22° 253° (WSW) 915 3.7 -26.6°
